Location: Salzburg
(47.8014°N, 13.0415°E)
Time: 20:58:59
(UTC+01:00)

ISS - Visible Passes

Search period start: 07 December 2025 00:00
Search period end: 17 December 2025 00:00
Orbit: 416 x 421 km, 51.6° (Epoch: 07 December)

Date Brightness Start Highest point End Pass type
(mag) Time Alt. Az. Time Alt. Az. Time Alt. Az.
12 Dec -0.5 06:27:04 10° SSE 06:28:53 14° SE 06:30:44 10° ESE visible
14 Dec -1.8 06:26:23 10° SSW 06:29:24 31° SE 06:32:26 10° E visible
15 Dec -1.2 05:38:57 10° S 05:41:33 21° SE 05:44:09 10° E visible
16 Dec -0.7 04:53:46 13° SE 04:53:46 13° SE 04:55:28 10° ESE visible
16 Dec -3.5 06:26:44 11° SW 06:30:00 69° SSE 06:33:22 10° ENE visible
